CAPE
59 75 138 95 152 54 478 650 983 1062 970 1191 1153 794 814 602 896 793 762 969 722 73 322 37 705 845 989 1211 1443 1095 1106 1084 902
2 0 22 67 111 144 112 116 650 102 1077 995 1211 1051 932 877 1004 720 725 860 1284 1144 316 32 226 129 850 726 1059 664 1138 928 901
0 1 45 28 55 3 0 0 60 800 1102 1062 845 1079 1069 1114 1135 1085 877 949 948 776 215 7 0 1 519 800 657 740 859 1080 957
192 347 290 74 55 219 7 0 330 1097 982 1005 1025 951 804 874 979 990 819 764 632 677 373 76 108 566 809 828 674 746 941 958 871
1101 593 303 91 14 4 538 781 917 742 405 248 223 630 778 874 362 536 654 382 331 485 635 889 783 989 873 976 871 842 1016 1010 972
1272 1616 1126 466 844 896 966 865 726 760 366 216 137 392 158 100 589 621 733 470 105 275 636 651 1034 896 803 529 787 843 843 823 1054
1031 1184 1196 1309 1206 1168 1064 1170 812 349 286 200 103 33 37 0 57 90 270 266 333 382 442 435 734 650 700 752 1105 905 924 1156 931
644 524 477 827 545 705 1206 1178 909 771 651 392 208 151 111 81 61 13 6 48 59 80 53 321 597 669 665 280 145 51 97 250 787
465 435 382 231 224 349 367 752 1137 807 517 415 446 283 247 248 284 145 91 74 26 29 42 164 367 258 584 172 0 0 0 0 556
619 455 293 207 121 64 5 2 253 588 1100 738 631 617 548 359 302 415 355 234 147 72 32 84 73 268 79 0 0 0 0 0 67
504 328 185 101 21 2 2 2 1 12 127 374 368 327 384 297 278 132 108 85 37 0 21 59 105 117 0 0 0 0 0 0 9
425 285 230 69 4 3 4 1 2 1 0 0 3 2 4 10 16 7 0 10 44 44 2 4 89 88 0 0 0 0 0 0 0
378 48 0 0 2 3 1 1 2 1 1 0 0 0 0 0 0 0 0 0 0 0 0 67 2 0 0 0 0 0 0 0 0
234 118 0 0 0 0 0 0 0 0 0 0 0 0 0 0 0 0 0 0 0 0 0 0 0 0 0 0 0 0 0 0 0
78 6 0 0 0 0 0 0 0 0 0 0 0 0 0 0 0 0 0 0 0 0 0 0 0 0 0 0 0 0 0 0 0
0 4 3 2 0 0 0 0 0 0 0 0 0 0 0 0 0 0 0 0 0 0 0 0 0 0 0 0 0 0 0 0 0
61 3 2 0 0 0 0 0 0 0 0 0 0 0 0 0 0 0 0 0 0 0 0 0 0 0 0 0 0 0 0 0 0
120 43 2 1 0 0 0 0 0 0 0 0 0 0 0 0 0 0 0 0 0 0 0 0 0 0 0 0 0 0 0 0 0
121 72 14 1 0 0 0 0 0 0 0 0 0 0 0 0 0 0 0 0 0 0 0 0 0 0 0 0 0 0 0 0 0
198 114 60 42 19 10 0 0 0 0 0 0 0 0 0 0 0 0 0 0 0 0 0 0 0 0 0 0 0 0 0 0 0
CIN
-30 -100 -56 -29 -33 -47 -9 -18 -7 -30 -18 -4 -2 -2 -1 -5 -1 -13 -8 -4 -17 -72 -74 -72 -37 -11 -8 -8 -4 -4 -3 -10 -13
-43 0 -126 -49 -39 -19 -106 -81 -33 -56 -8 -11 -1 -1 -1 -2 -3 -6 -7 -8 -7 -5 -85 -107 -73 -95 -1 -8 -2 -3 -5 -5 -10
0 -79 -142 -60 -49 -55 0 0 -117 -9 -24 -19 -26 -2 -7 -6 -16 -12 -8 -9 -11 -8 -113 -115 0 -12 -17 -3 -3 -1 -3 -4 -9
-107 -38 -51 -82 -34 -75 -81 0 -56 -29 -17 -41 -29 -13 -13 -3 -4 -3 -14 -8 -10 -1 -49 -79 -126 -42 -2 -3 -3 -2 -3 -8 -15
-21 -9 -78 -120 -162 -3 -59 -36 -43 -132 -127 -125 -102 -53 -47 -14 -61 -23 -4 -11 -30 -2 -1 -5 -12 -7 -12 -7 -4 -1 -1 -9 -8
-99 -25 -33 -85 -3 -36 -36 -70 -87 -114 -137 -125 -128 -55 -65 -48 -6 -9 -7 -21 -71 -51 -2 -2 -2 -4 -13 -14 -16 -9 -14 -19 -11
-147 -117 -84 -18 -12 -11 -18 -27 -79 -132 -117 -124 -153 -162 -114 0 -48 -71 -65 -44 -29 -23 -21 -14 -6 -6 -10 -14 -7 -9 -8 -3 -11
-189 -209 -185 -105 -124 -112 -21 -37 -36 -20 -25 -58 -109 -96 -71 -56 -47 -111 -148 -104 -64 -50 -34 -17 -17 -6 -5 -58 -96 -198 -156 -76 -20
-170 -206 -219 -252 -217 -160 -147 -55 -5 -27 -33 -50 -49 -81 -44 -5 -8 -32 -58 -86 -73 -54 -46 -23 -23 -13 -6 -82 0 0 0 0 -34
-108 -182 -253 -284 -308 -371 -274 -108 -182 -94 -5 -13 -15 -9 -3 -5 -1 0 -14 -35 -3 -6 -26 -24 -14 -25 -64 0 0 0 0 0 -116
-120 -239 -290 -311 -417 0 0 0 0 -386 -221 -87 -65 -57 -17 -21 -3 -38 -53 -47 -55 -2 -36 -19 -6 -48 0 0 0 0 0 0 -83
-161 -215 -268 -357 -80 0 0 0 0 0 0 0 -59 -56 -44 -167 -195 -176 0 -126 -38 -50 -8 -33 -26 -21 0 0 0 0 0 0 0
-112 -349 0 0 0 0 0 0 0 0 0 0 0 0 0 0 0 0 0 0 0 0 0 -21 -22 0 0 0 0 0 0 0 0
-212 -280 0 0 0 0 0 0 0 0 0 0 0 0 0 0 0 0 0 0 0 0 0 0 0 0 0 0 0 0 0 0 0
-222 -212 0 0 0 0 0 0 0 0 0 0 0 0 0 0 0 0 0 0 0 0 0 0 0 0 0 0 0 0 0 0 0
-8 0 0 -1 0 0 0 0 0 0 0 0 0 0 0 0 0 0 0 0 0 0 0 0 0 0 0 0 0 0 0 0 0
-74 -33 -1 0 0 0 0 0 0 0 0 0 0 0 0 0 0 0 0 0 0 0 0 0 0 0 0 0 0 0 0 0 0
-26 -72 -1 0 -1 0 0 0 0 0 0 0 0 0 0 0 0 0 0 0 0 0 0 0 0 0 0 0 0 0 0 0 0
-16 -38 -40 -1 -1 0 0 0 0 0 0 0 0 0 0 0 0 0 0 0 0 0 0 0 0 0 0 0 0 0 0 0 0
-18 -9 -11 -22 -62 -1 0 0 0 0 0 0 0 0 0 0 0 0 0 0 0 0 0 0 0 0 0 0 0 0 0 0 0
Wind_Speed
37 41 37 37 30 32 12 9 6 10 9 9 8 4 3 3 9 8 8 9 12 12 17 22 22 21 22 21 7 19 11 15 15
14 44 42 32 40 37 7 6 22 14 13 10 6 4 4 13 16 20 16 14 16 15 15 17 18 20 23 23 14 15 17 13 20
15 42 41 38 30 14 10 29 17 20 13 10 8 6 3 6 11 15 17 15 16 14 11 10 6 24 22 19 17 7 22 18 17
23 22 34 26 17 35 8 34 14 9 9 0 5 9 11 8 13 17 12 14 20 18 10 11 5 18 9 7 11 6 12 12 18
8 10 20 24 10 50 15 6 7 3 3 2 6 9 18 16 12 30 18 16 18 22 20 14 17 21 23 24 23 7 5 7 18
10 6 3 14 10 7 7 7 3 3 4 6 8 11 16 21 15 14 19 16 16 26 21 18 19 17 20 18 13 6 25 11 24
6 9 7 4 3 2 4 5 3 2 2 5 10 12 15 20 22 26 22 20 20 17 22 19 13 21 21 24 16 13 15 17 14
7 13 13 11 12 11 7 3 4 4 4 3 4 5 9 8 11 21 25 26 25 24 26 22 19 18 23 19 19 20 22 23 18
6 7 10 15 14 14 15 14 10 2 1 2 3 4 4 4 15 21 21 23 21 22 27 26 18 21 20 16 21 24 24 23 22
6 5 7 9 13 14 15 15 14 12 8 2 1 1 3 6 8 9 13 17 17 19 19 17 17 13 13 15 21 24 24 24 23
4 5 6 7 8 10 12 12 12 11 11 9 7 7 5 7 8 10 11 14 15 17 17 14 12 11 13 15 19 23 23 23 23
5 8 7 7 8 8 9 11 10 10 10 9 9 10 9 9 9 10 13 15 16 17 17 17 16 11 12 14 18 22 23 22 22
7 8 9 10 9 8 9 10 9 8 9 9 10 11 11 11 12 13 14 16 17 18 18 16 14 15 16 18 20 24 23 22 21
8 9 8 8 9 10 10 9 9 8 9 11 10 10 11 12 14 15 16 16 17 17 18 15 15 15 18 20 20 21 21 21 21
9 10 9 9 9 9 9 9 9 10 11 10 10 10 11 13 14 15 16 17 18 18 18 18 18 18 20 15 17 17 19 21 22
11 11 10 9 8 8 9 9 10 10 10 10 11 12 13 14 14 15 15 16 17 18 18 20 20 20 21 17 15 17 20 22 25
11 11 10 9 9 10 11 12 11 11 10 10 11 13 14 14 14 16 17 18 19 21 19 20 20 23 24 21 19 20 22 24 24
10 11 11 11 12 12 11 11 12 10 10 11 13 14 14 15 16 16 16 16 18 17 19 19 22 22 22 23 22 22 23 25 25
9 11 12 11 12 12 12 12 12 11 11 12 13 15 15 16 16 16 16 16 19 19 18 22 21 24 23 22 22 24 25 25 24
10 9 11 12 13 12 11 12 13 13 14 15 18 20 21 18 20 20 18 19 19 20 21 20 23 23 24 25 25 25 24 24 25
Wind_Direction
224 220 223 222 229 228 148 149 148 123 124 118 113 88 31 29 315 344 26 84 325 297 171 188 206 199 205 251 50 176 345 311 312
201 219 213 231 216 219 182 223 240 140 135 120 101 81 335 290 282 264 287 309 299 313 324 302 275 262 224 253 307 306 282 331 284
145 188 205 218 211 200 227 245 235 146 132 120 111 103 51 316 298 288 286 298 301 316 356 8 135 213 206 281 297 97 260 289 306
164 170 176 178 243 228 227 197 168 131 121 229 321 319 311 310 297 286 303 301 285 298 341 355 70 183 250 92 139 89 151 159 302
256 147 163 165 165 181 139 181 237 233 271 254 309 313 287 299 296 239 288 299 301 284 290 314 306 290 277 262 240 121 79 10 303
252 253 119 147 154 136 138 149 225 274 271 282 309 305 297 296 299 290 290 305 306 267 296 305 300 312 289 297 311 340 271 332 286
263 251 244 250 231 262 257 274 263 233 273 305 304 306 309 303 283 275 287 296 293 303 296 308 312 292 292 281 304 318 312 309 321
254 257 255 257 265 275 286 293 296 299 310 324 324 337 335 331 310 286 285 289 294 289 287 295 301 305 290 299 302 301 298 297 308
271 268 266 261 268 268 269 279 291 289 301 68 54 64 48 8 302 289 294 305 310 301 286 287 303 298 300 304 296 297 298 299 299
285 293 290 283 274 272 272 275 284 293 293 304 352 31 28 358 356 8 330 321 327 315 308 304 303 316 314 312 298 297 298 297 298
313 310 308 305 294 286 288 291 291 298 300 315 321 326 335 346 355 353 351 343 332 334 324 327 322 334 324 314 308 304 302 303 304
312 301 315 321 311 308 304 301 302 300 305 314 314 315 315 319 326 334 329 330 329 322 323 310 311 339 334 341 327 313 310 309 312
324 322 307 305 309 314 314 313 316 315 314 319 316 311 310 311 315 317 319 316 313 310 311 320 315 312 318 322 319 307 312 312 311
345 340 333 320 310 303 308 317 324 322 322 314 319 316 316 312 312 309 309 312 307 309 308 314 317 316 315 317 319 313 310 312 313
323 326 324 319 314 309 314 317 318 314 314 322 325 324 319 314 312 311 311 306 305 303 303 303 307 309 309 321 324 318 316 311 310
307 304 311 315 317 312 316 319 315 312 315 317 315 318 317 317 315 314 313 311 308 304 303 300 298 299 300 312 317 319 318 315 309
302 304 306 310 309 306 304 308 312 314 317 318 315 312 313 313 311 311 308 305 303 302 302 300 299 296 293 297 305 307 311 313 312
311 308 302 303 301 302 303 305 306 314 315 315 311 314 312 309 308 304 305 310 308 305 308 306 299 299 300 298 300 306 310 312 312
313 308 305 307 304 302 300 301 301 305 308 308 306 307 308 308 306 307 302 303 304 309 310 302 307 299 302 304 304 307 308 310 310
329 318 309 306 302 303 303 301 299 301 302 302 300 298 301 303 301 297 301 298 301 303 304 309 302 302 301 300 302 305 306 306 307